| time (UTC) | temp F | wind direction | speed MPH | gust MPH | rain 1hr in | rain 24hr in | rain mn in | humidity % | barometer mb |
| 20260508033004 | 62 | 221 | 4.0 | 8.0 | 0.00 | 0.00 | 0.00 | 45 | 1016.1 |
| 20260508031504 | 61 | 203 | 4.0 | 5.0 | 0.00 | 0.00 | 0.00 | 48 | 1016.1 |
| 20260508030025 | 63 | 224 | 4.0 | 6.0 | 0.00 | 0.00 | 0.00 | 43 | 1016.0 |
| 20260508024504 | 64 | 210 | 4.0 | 6.0 | 0.00 | 0.00 | 0.00 | 39 | 1016.0 |
| 20260508023025 | 64 | 208 | 4.0 | 6.0 | 0.00 | 0.00 | 0.00 | 38 | 1015.9 |
| 20260508021504 | 64 | 213 | 6.0 | 10.0 | 0.00 | 0.00 | 0.00 | 36 | 1016.0 |
| 20260508020005 | 62 | 207 | 3.0 | 4.0 | 0.00 | 0.00 | 0.00 | 40 | 1016.0 |
| 20260508014504 | 62 | 208 | 4.0 | 6.0 | 0.00 | 0.00 | 0.00 | 41 | 1016.1 |
| 20260508013004 | 61 | 233 | 3.0 | 6.0 | 0.00 | 0.00 | 0.00 | 46 | 1016.4 |
| 20260508011505 | 62 | 190 | 4.0 | 6.0 | 0.00 | 0.00 | 0.00 | 43 | 1016.6 |
| 20260508010005 | 60 | 229 | 2.0 | 4.0 | 0.00 | 0.00 | 0.00 | 49 | 1017.0 |
| 20260508004506 | 58 | 274 | 2.0 | 5.0 | 0.00 | 0.00 | 0.00 | 54 | 1017.3 |
| 20260508003005 | 59 | 260 | 3.0 | 5.0 | 0.00 | 0.00 | 0.00 | 51 | 1017.2 |
| 20260508001506 | 58 | 266 | 2.0 | 2.0 | 0.00 | 0.00 | 0.00 | 52 | 1017.4 |
| 20260508000006 | 59 | 335 | 3.0 | 5.0 | 0.00 | 0.00 | 0.00 | 51 | 1017.4 |
| 20260507234500 | 60 | 329 | 2.0 | 5.0 | 0.00 | 0.00 | 0.00 | 50 | 1017.5 |
| 20260507233000 | 60 | 319 | 3.0 | 5.0 | 0.00 | 0.00 | 0.00 | 47 | 1017.6 |
| 20260507231500 | 62 | 250 | 1.0 | 2.0 | 0.00 | 0.00 | 0.00 | 42 | 1017.3 |
| 20260507230001 | 62 | 194 | 3.0 | 5.0 | 0.00 | 0.00 | 0.00 | 40 | 1017.5 |
| 20260507224500 | 61 | 333 | 2.0 | 5.0 | 0.00 | 0.00 | 0.00 | 46 | 1017.8 |
| 20260507223000 | 63 | 235 | 1.0 | 4.0 | 0.00 | 0.00 | 0.00 | 35 | 1017.5 |
| 20260507221500 | 64 | 210 | 3.0 | 5.0 | 0.00 | 0.00 | 0.00 | 32 | 1017.5 |
| 20260507220022 | 65 | 199 | 4.0 | 6.0 | 0.00 | 0.00 | 0.00 | 30 | 1017.6 |
| 20260507214500 | 64 | 194 | 6.0 | 10.0 | 0.00 | 0.00 | 0.00 | 31 | 1017.6 |
| 20260507213000 | 64 | 209 | 5.0 | 10.0 | 0.00 | 0.00 | 0.00 | 33 | 1017.7 |
| 20260507211501 | 64 | 178 | 6.0 | 8.0 | 0.00 | 0.00 | 0.00 | 32 | 1017.6 |
| 20260507210012 | 64 | 193 | 9.0 | 14.0 | 0.00 | 0.00 | 0.00 | 32 | 1017.2 |
| 20260507204500 | 65 | 182 | 8.0 | 13.0 | 0.00 | 0.00 | 0.00 | 32 | 1017.3 |
| 20260507203000 | 65 | 161 | 8.0 | 12.0 | 0.00 | 0.00 | 0.00 | 31 | 1017.4 |
| 20260507201500 | 65 | 205 | 9.0 | 15.0 | 0.00 | 0.00 | 0.00 | 31 | 1017.6 |
| 20260507200002 | 65 | 194 | 8.0 | 12.0 | 0.00 | 0.00 | 0.00 | 29 | 1017.4 |
| 20260507194521 | 65 | 189 | 5.0 | 8.0 | 0.00 | 0.00 | 0.00 | 27 | 1017.6 |
| 20260507193000 | 65 | 194 | 5.0 | 7.0 | 0.00 | 0.00 | 0.00 | 27 | 1017.5 |
| 20260507191500 | 65 | 195 | 5.0 | 8.0 | 0.00 | 0.00 | 0.00 | 25 | 1017.4 |
| 20260507190003 | 63 | 186 | 4.0 | 6.0 | 0.00 | 0.00 | 0.00 | 32 | 1017.8 |
| 20260507184500 | 63 | 205 | 5.0 | 6.0 | 0.00 | 0.00 | 0.00 | 37 | 1017.8 |
| 20260507183001 | 64 | 205 | 5.0 | 8.0 | 0.00 | 0.00 | 0.00 | 36 | 1017.5 |
| 20260507181501 | 64 | 217 | 5.0 | 6.0 | 0.00 | 0.00 | 0.00 | 38 | 1017.5 |
| 20260507180023 | 64 | 247 | 3.0 | 6.0 | 0.00 | 0.00 | 0.00 | 36 | 1017.5 |
| 20260507174501 | 64 | 195 | 4.0 | 6.0 | 0.00 | 0.00 | 0.00 | 36 | 1017.2 |
| 20260507173001 | 64 | 218 | 5.0 | 7.0 | 0.00 | 0.00 | 0.00 | 36 | 1017.5 |
| 20260507171501 | 64 | 247 | 2.0 | 4.0 | 0.00 | 0.00 | 0.00 | 37 | 1017.5 |
| 20260507170002 | 64 | 181 | 4.0 | 6.0 | 0.00 | 0.00 | 0.00 | 37 | 1017.2 |
| 20260507164522 | 64 | 199 | 4.0 | 6.0 | 0.00 | 0.00 | 0.00 | 36 | 1017.0 |
| 20260507163001 | 65 | 216 | 3.0 | 6.0 | 0.00 | 0.00 | 0.00 | 42 | 1017.1 |
| 20260507161501 | 65 | 222 | 3.0 | 5.0 | 0.00 | 0.00 | 0.00 | 38 | 1017.2 |
| 20260507160001 | 66 | 234 | 3.0 | 5.0 | 0.00 | 0.00 | 0.00 | 38 | 1017.3 |
| 20260507154501 | 67 | 210 | 4.0 | 5.0 | 0.00 | 0.00 | 0.00 | 35 | 1017.0 |
| 20260507153001 | 68 | 195 | 4.0 | 8.0 | 0.00 | 0.00 | 0.00 | 36 | 1017.2 |
| 20260507151501 | 68 | 203 | 4.0 | 4.0 | 0.00 | 0.00 | 0.00 | 39 | 1017.0 |
| 20260507150002 | 69 | 171 | 5.0 | 8.0 | 0.00 | 0.00 | 0.00 | 38 | 1016.9 |
| 20260507144502 | 69 | 197 | 4.0 | 6.0 | 0.00 | 0.00 | 0.00 | 35 | 1016.8 |
| 20260507143001 | 70 | 216 | 5.0 | 8.0 | 0.00 | 0.00 | 0.00 | 32 | 1016.8 |
| 20260507141501 | 71 | 183 | 5.0 | 8.0 | 0.00 | 0.00 | 0.00 | 36 | 1016.6 |
| 20260507140023 | 73 | 194 | 4.0 | 6.0 | 0.00 | 0.00 | 0.00 | 37 | 1016.2 |
| 20260507134501 | 73 | 215 | 4.0 | 6.0 | 0.00 | 0.00 | 0.00 | 37 | 1016.0 |
| 20260507133002 | 72 | 211 | 3.0 | 5.0 | 0.00 | 0.00 | 0.00 | 33 | 1016.0 |
| 20260507131502 | 72 | 178 | 5.0 | 6.0 | 0.00 | 0.00 | 0.00 | 30 | 1016.0 |
| 20260507130004 | 71 | 187 | 4.0 | 6.0 | 0.00 | 0.00 | 0.00 | 32 | 1016.2 |
| 20260507124501 | 72 | 196 | 4.0 | 6.0 | 0.00 | 0.00 | 0.00 | 30 | 1016.4 |
| 20260507123002 | 74 | 183 | 4.0 | 5.0 | 0.00 | 0.00 | 0.00 | 29 | 1016.4 |
| 20260507121501 | 74 | 181 | 3.0 | 6.0 | 0.00 | 0.00 | 0.00 | 29 | 1016.5 |
| 20260507120002 | 75 | 206 | 4.0 | 8.0 | 0.00 | 0.00 | 0.00 | 30 | 1016.4 |
| 20260507114501 | 76 | 175 | 5.0 | 8.0 | 0.00 | 0.00 | 0.00 | 35 | 1016.3 |
| 20260507113002 | 77 | 188 | 5.0 | 8.0 | 0.00 | 0.00 | 0.00 | 39 | 1016.0 |
| 20260507111503 | 76 | 190 | 4.0 | 6.0 | 0.00 | 0.00 | 0.00 | 39 | 1016.3 |
| 20260507110003 | 76 | 177 | 5.0 | 6.0 | 0.00 | 0.00 | 0.00 | 39 | 1016.2 |
| 20260507104507 | 76 | 225 | 3.0 | 5.0 | 0.00 | 0.00 | 0.00 | 37 | 1016.1 |
| 20260507103002 | 75 | 213 | 4.0 | 7.0 | 0.00 | 0.00 | 0.00 | 40 | 1016.1 |
| 20260507101502 | 74 | 196 | 4.0 | 6.0 | 0.00 | 0.00 | 0.00 | 42 | 1016.2 |
| 20260507100003 | 75 | 174 | 5.0 | 8.0 | 0.00 | 0.00 | 0.00 | 38 | 1016.3 |
| 20260507094502 | 74 | 180 | 4.0 | 8.0 | 0.00 | 0.00 | 0.00 | 38 | 1016.2 |
| 20260507093003 | 74 | 212 | 4.0 | 10.0 | 0.00 | 0.00 | 0.00 | 43 | 1016.1 |
| 20260507091523 | 74 | 203 | 4.0 | 8.0 | 0.00 | 0.00 | 0.00 | 41 | 1016.2 |
| 20260507090004 | 74 | 203 | 3.0 | 4.0 | 0.00 | 0.00 | 0.00 | 43 | 1016.1 |
| 20260507084523 | 74 | 251 | 3.0 | 5.0 | 0.00 | 0.00 | 0.00 | 45 | 1016.1 |
| 20260507083003 | 74 | 168 | 2.0 | 6.0 | 0.00 | 0.00 | 0.00 | 48 | 1016.2 |
| 20260507081502 | 73 | 231 | 3.0 | 7.0 | 0.00 | 0.00 | 0.00 | 48 | 1016.3 |
| 20260507080025 | 71 | 180 | 3.0 | 6.0 | 0.00 | 0.00 | 0.00 | 51 | 1016.4 |
| 20260507074502 | 72 | 255 | 2.0 | 2.0 | 0.00 | 0.00 | 0.00 | 54 | 1016.1 |
| 20260507073002 | 72 | 259 | 2.0 | 6.0 | 0.00 | 0.00 | 0.00 | 54 | 1015.9 |
| 20260507071503 | 71 | 251 | 2.0 | 4.0 | 0.00 | 0.00 | 0.00 | 50 | 1016.1 |
| 20260507070006 | 71 | 215 | 2.0 | 4.0 | 0.00 | 0.00 | 0.00 | 51 | 1016.3 |
| 20260507064502 | 71 | 218 | 2.0 | 4.0 | 0.00 | 0.00 | 0.00 | 50 | 1016.3 |
| 20260507063003 | 70 | 221 | 2.0 | 6.0 | 0.00 | 0.00 | 0.00 | 46 | 1016.4 |
| 20260507061504 | 70 | 6 | 2.0 | 2.0 | 0.00 | 0.00 | 0.00 | 49 | 1016.3 |
| 20260507060003 | 69 | 22 | 1.0 | 2.0 | 0.00 | 0.00 | 0.00 | 52 | 1016.3 |
| 20260507054502 | 68 | 5 | 2.0 | 2.0 | 0.00 | 0.00 | 0.00 | 50 | 1016.3 |
| 20260507053003 | 67 | 333 | 1.0 | 2.0 | 0.00 | 0.00 | 0.00 | 47 | 1016.4 |
| 20260507051503 | 66 | 360 | 1.0 | 2.0 | 0.00 | 0.00 | 0.00 | 51 | 1016.4 |
| 20260507050003 | 64 | 292 | 1.0 | 2.0 | 0.00 | 0.00 | 0.00 | 58 | 1016.8 |
| 20260507044503 | 61 | 283 | 2.0 | 2.0 | 0.00 | 0.00 | 0.00 | 60 | 1016.9 |
| 20260507043003 | 57 | 270 | 1.0 | 2.0 | 0.00 | 0.00 | 0.00 | 67 | 1017.4 |
| 20260507041524 | 53 | 279 | 2.0 | 2.0 | 0.00 | 0.00 | 0.00 | 72 | 1018.0 |
| 20260507040004 | 51 | 275 | 2.0 | 2.0 | 0.00 | 0.00 | 0.00 | 72 | 1018.2 |
| 20260507034503 | 50 | 273 | 3.0 | 5.0 | 0.00 | 0.00 | 0.00 | 72 | 1018.4 |